Hourly Data Report for March 28, 2021

NANAIMO A
BRITISH COLUMBIA
Current Station Operator: NAVCAN

49°03'16.000" N
123°52'12.000" W
28.00 m
1025365
YCD

Download Data

Hourly Data (March 2021)
Hourly Data Report for March 28, 2021
TIME
LST
Temp Definition
°C
Dew Point Definition
°C
Rel Hum Definition
%
Precip. Amount Definition
mm

Wind Dir Definition
10's deg

Wind Spd Definition
km/h
Visibility Definition
km
Stn Press Definition
kPa
Hmdx Definition


Wind Chill Definition


Weather Definition


00:00 9.3 2.7 63 LegendMM 21 14 LegendMM 101.60     LegendNANA
01:00 8.1 3.7 74 LegendMM 18 22 LegendMM 101.47     LegendNANA
02:00 8.7 2.6 66 LegendMM 19 23 LegendMM 101.34     LegendNANA
03:00 7.9 3.3 73 LegendMM 19 16 LegendMM 101.22     LegendNANA
04:00 7.9 3.3 72 LegendMM 16 18 LegendMM 101.08     LegendNANA
05:00 8.0 2.8 69 LegendMM 16 18 LegendMM 100.93     LegendNANA
06:00 7.2 2.9 74 LegendMM 24 4 LegendMM 100.83     LegendNANA
07:00 7.7 3.4 74 LegendMM 18 8 LegendMM 100.73     LegendNANA
08:00 8.1 3.5 73 LegendMM 12 14 LegendMM 100.53     LegendNANA
09:00 8.1 4.1 76 LegendMM 14 16 LegendMM 100.42     LegendNANA
10:00 7.4 5.2 86 LegendMM 13 5 LegendMM 100.27     LegendNANA
11:00 7.8 5.5 86 LegendMM 26 6 LegendMM 100.26     LegendNANA
12:00 9.4 4.2 70 LegendMM 24 9 LegendMM 100.25     LegendNANA
13:00 9.8 -0.5 49 LegendMM 24 22 LegendMM 100.22     LegendNANA
14:00 8.0 1.7 64 LegendMM 29 14 LegendMM 100.37     LegendNANA
15:00 4.4 1.0 79 LegendMM 31 21 LegendMM 100.51     LegendNANA
16:00 4.4 -0.8 69 LegendMM 33 13 LegendMM 100.51     LegendNANA
17:00 6.8 -1.2 57 LegendMM 30 16 LegendMM 100.57     LegendNANA
18:00 6.3 -2.8 52 LegendMM 28 28 LegendMM 100.72     LegendNANA
19:00 4.7 -1.0 67 LegendMM 27 16 LegendMM 100.83     LegendNANA
20:00 4.7 -3.6 55 LegendMM 29 8 LegendMM 101.00     LegendNANA
21:00 4.8 -5.7 47 LegendMM 28 15 LegendMM 101.12     LegendNANA
22:00 5.5 -5.9 44 LegendMM 30 28 LegendMM 101.26     LegendNANA
23:00 4.9 -5.7 46 LegendMM 30 19 LegendMM 101.42     LegendNANA

Notes on Data Quality.

Legend

  • E = Estimated
  • M = Missing
  • NA = Not Available*
  • [empty] = Indicates an unobserved value
Date modified: